Cloud_Cover
100 100 100 100 94 59 55 30 40 5 18 88 100 100 33 5 5 3 5 4 5 4 5 6 5 8 1 2 0 0 0 0 0 0 0 0 0 0 0 0 0 0 0 0 0 4 0 0 0
100 100 100 100 84 100 100 90 30 71 8 4 5 5 3 5 5 3 5 5 5 5 2 5 5 5 2 5 0 1 0 0 0 0 0 0 0 0 0 0 0 0 0 0 0 0 11 0 0
100 100 76 100 100 100 100 39 100 51 5 17 40 31 5 5 4 4 5 5 5 5 0 5 5 2 4 4 0 0 0 0 0 0 0 0 0 0 0 0 0 0 0 0 6 0 6 20 1
62 50 100 100 100 100 83 97 78 10 86 100 100 92 77 2 2 5 12 5 12 3 0 5 2 2 5 5 2 4 0 0 0 0 0 0 0 0 0 0 0 0 0 3 0 0 0 0 1
100 100 29 98 100 100 100 94 73 77 70 29 86 64 5 47 100 42 5 5 5 4 0 5 5 5 5 5 0 0 0 0 0 0 0 0 0 0 0 0 2 1 0 0 0 0 0 0 0
100 100 100 55 80 100 97 76 91 5 59 22 56 54 77 100 100 38 11 15 5 5 4 5 4 5 5 4 0 0 0 0 0 0 0 0 0 0 0 1 1 2 0 6 4 40 0 0 5
100 95 100 100 100 98 100 100 87 8 60 99 72 10 100 84 96 86 59 59 5 5 9 5 5 5 5 1 5 0 0 0 0 0 0 0 0 0 6 0 2 0 0 0 0 2 5 0 30
100 100 100 100 100 100 100 100 98 100 45 94 67 25 22 39 2 16 88 45 5 34 5 1 5 5 5 5 1 0 0 0 0 0 0 0 0 0 0 0 0 0 0 0 0 0 4 1 0
100 90 100 100 100 100 100 100 84 52 100 100 98 6 38 2 0 45 100 4 5 17 5 4 5 5 5 5 1 4 0 0 0 0 0 0 0 0 0 49 0 0 0 0 0 0 0 0 0
70 82 100 100 100 100 100 100 100 100 100 49 25 20 13 45 25 50 49 5 0 5 5 2 5 5 5 5 5 4 0 0 0 0 0 0 0 0 0 6 0 0 0 0 0 0 0 0 0
98 100 100 100 100 100 100 99 95 100 99 88 41 39 5 5 41 60 6 5 5 5 61 4 1 5 7 5 1 4 0 0 0 0 0 0 0 0 0 7 25 14 70 6 41 4 1 87 85
42 29 82 96 92 91 100 100 100 100 100 31 79 15 2 5 62 66 5 44 5 5 5 1 5 5 63 5 0 0 0 0 0 0 6 0 0 6 2 0 41 100 71 98 72 99 100 98 87
11 99 50 23 56 23 20 30 5 59 69 99 15 73 6 23 96 34 98 52 5 10 5 5 13 94 46 5 1 0 0 0 0 0 0 0 0 0 0 30 80 5 90 18 88 100 100 100 96
94 6 12 73 5 5 15 10 5 96 100 99 79 20 73 91 91 52 98 91 55 55 74 7 38 100 49 4 0 0 0 0 0 0 0 0 0 0 0 11 58 70 49 26 68 64 100 50 100
5 41 47 23 100 100 100 31 96 100 99 46 72 9 21 100 79 90 88 100 100 100 100 100 100 100 45 3 0 0 0 0 0 0 0 0 4 5 13 27 2 58 100 100 100 100 100 66 79
5 52 67 100 99 5 93 12 47 100 98 89 92 67 69 5 74 100 100 49 100 100 100 100 98 89 0 0 0 0 0 0 2 0 0 2 4 0 38 18 9 31 85 100 100 100 100 83 38
0 5 88 60 38 5 97 14 100 35 11 6 5 23 10 30 65 92 24 2 100 100 100 100 44 1 5 2 0 1 5 5 2 0 0 20 6 0 97 69 19 99 100 100 98 17 9 14 59
4 8 5 14 16 17 69 61 5 97 22 4 5 20 4 0 0 0 0 33 100 100 100 50 5 5 5 0 1 5 5 5 2 0 0 1 1 60 96 68 34 99 100 75 68 39 80 89 24
0 0 0 0 1 100 52 78 18 73 2 5 0 5 0 0 0 0 0 5 4 29 52 5 5 5 0 0 42 87 5 5 2 0 0 0 0 21 100 39 90 98 54 75 56 24 6 100 53
0 0 0 0 0 100 100 61 0 1 2 1 0 0 1 0 0 0 0 0 0 0 5 63 11 1 0 6 98 42 5 3 0 0 23 18 0 5 100 63 98 80 34 8 87 15 6 84 100
0 0 0 0 3 100 68 4 0 0 0 0 0 0 0 0 0 0 0 0 0 4 42 5 4 0 15 60 88 5 5 0 0 0 5 23 4 32 100 77 86 65 16 29 77 85 73 82 97
0 0 0 3 7 36 91 12 2 0 0 0 0 0 0 0 0 0 0 0 4 22 60 5 4 6 3 100 10 62 0 0 2 1 8 0 9 46 100 7 16 8 31 14 18 21 100 78 19
0 0 2 17 0 4 3 2 0 2 0 0 0 0 0 0 0 0 0 4 90 71 5 1 12 0 4 5 4 0 0 0 0 0 1 6 12 11 86 6 6 12 6 18 10 10 12 2 5
0 0 4 13 5 3 1 21 69 0 0 3 24 1 0 0 0 4 3 75 63 4 0 3 0 1 2 0 0 0 0 0 0 1 21 15 5 32 28 95 84 67 19 11 38 31 36 15 9
0 0 5 1 0 0 3 2 96 0 0 1 0 0 1 1 6 10 71 70 5 2 0 0 0 0 0 0 0 0 0 0 2 5 81 0 1 4 9 46 48 57 45 74 87 43 81 6 7
0 0 0 0 4 4 5 1 98 0 0 0 5 27 56 9 6 90 100 55 5 0 0 0 0 0 0 0 0 0 4 11 7 5 23 87 97 59 1 55 7 99 100 51 99 100 86 46 31
0 22 0 2 7 52 45 14 100 5 5 4 3 35 4 5 100 100 70 5 2 1 0 0 0 0 0 0 0 0 6 7 58 0 0 18 99 68 32 52 100 100 100 100 100 71 100 99 72
11 2 0 0 5 71 16 75 100 5 5 33 5 1 30 100 100 33 10 5 5 0 0 0 0 0 0 0 0 30 99 29 24 1 17 8 25 19 12 61 98 30 73 100 100 100 96 100 88
0 50 0 1 12 29 99 100 5 5 64 100 45 97 100 96 10 100 84 37 5 0 0 0 0 0 0 0 58 100 100 100 91 19 55 10 9 4 22 52 94 89 99 57 100 99 64 100 99
0 4 1 0 4 42 77 100 5 9 82 100 100 100 100 100 97 20 65 2 0 0 0 0 0 0 0 1 91 79 100 69 26 11 100 3 5 2 61 77 100 99 100 100 100 88 100 97 82